Madison, MN (56256)

5:21 PM CST on February 06, 2016 (GMT -0600)
Madison-Lac Qui Parle County | | Change Station
CLOSE
Current Station
Airport
Location: Madison,
Elevation: 1083 ft
Nearby Weather Stations
Active Advisory: Blizzard Watch

Elev 1083 ft 44.98 °N, 96.18 °W | Updated 7 minutes ago

Light Rain
Light Rain
36 °F
Feels Like 28 °F
N
12
Wind Variable Wind from SW

Today
High -- | Low -- °F
--% Chance of Precip.
Yesterday
High -- | Low -- °F
Precip. -- in
Pressure 29.79 in
Visibility 10.0 miles
Clouds Scattered Clouds 3500 ft
Mostly Cloudy 5000 ft
Overcast 5500 ft
Windchill 28 °F
Dew Point 30 °F
Humidity 81%
Rainfall 0.00 in
Snow Depth Not available.
7:38 AM 5:39 PM
Waning Crescent, 4% visible
METAR KDXX 062314Z AUTO 22010KT 10SM -RA SCT035 BKN050 OVC055 02/M01 A2979 RMK AO2
Pressure 29.79 in
Visibility 10.0 miles
Clouds Scattered Clouds 3500 ft
Mostly Cloudy 5000 ft
Overcast 5500 ft
Windchill 28 °F
Dew Point 30 °F
Humidity 81%
Rainfall 0.00 in
Snow Depth Not available.
7:38 AM 5:39 PM
Waning Crescent, 4% visible
METAR KDXX 062314Z AUTO 22010KT 10SM -RA SCT035 BKN050 OVC055 02/M01 A2979 RMK AO2

10-Day Weather Forecast

Almanac

Astronomy

Feb. 06, 2016 Rise Set
Actual Time
Civil Twilight
Nautical Twilight
Astronomical Twilight
Moon
Length of Visible Light
Length of Day
Tomorrow will be .
, % of the Moon is Illuminated

Today's Extremes

State Highs State Lows

Community

WunderPhotos

Upload Photos

1,891,094 photos uploaded!

WunderBlog® & News

Nearby

Air Quality

  Air Quality AQ Index Pollutant
Not available.

Snow Depth

Station Depth Elevation

Earthquake Activity

City Distance Mag. Time & Date
Minimum magnitude displayed is 2.5.

Coastal Water Temperatures

Place Temperature

Stations

Nearby Weather Stations

Station Location Temp. Windchill Dew Point Humidity Wind Precip. Elev Updated Type
                   

Watches & Warnings

Blizzard Watch
Issued: 3:09 PM CST Feb. 6, 2016 – National Weather Service

... Blizzard watch remains in effect from Sunday afternoon through
Monday morning...

A blizzard watch remains in effect from Sunday afternoon through
Monday morning.

* Blizzard conditions are possible from Sunday afternoon through
Monday morning.

* Winds gusting as high as 55 mph could cause whiteout
conditions in blowing snow. Significant drifting of the snow
is likely.

* Total snow accumulations of up to 1 inch are possible.

* Travel could be very difficult to impossible.

Precautionary/preparedness actions...

A blizzard watch means there is a potential for falling and/or
blowing snow with strong winds and extremely poor visibilities.
This can lead to whiteout conditions and make travel very
dangerous.


Jlt